Weather in Terekhovo

Russia / Yaroslavl Oblast     58°41′35″N   39°35′07″E
temp.,
°C
wind,
m/s
gust,
m/s
humid.,
%
clouds,
%
prec.,
mm/h
press.,
hPa
HPBL,
m
11 april, sun
sun1100:00+3s516775 0.0 1021562
03:00+3sw4137986 0.0 1022560
06:00+2wsw259354 0.0 1024230
09:00+4w237862 0.0 1027505
12:00+7wsw246095 0.0 10281093
15:00+8wsw34511 0.0 10301104
18:00+7wsw11682 0.0 103114
21:00+3ese11775 0.0 103310
12 april, mon
mon1200:00+3ese1185100 0.0 103412
03:00+4ese1193100 0.0 103410
06:00+5se2693100 0.0 1034137
09:00+8sse388159 0.0 1034284
12:00+13s46575 0.0 1033828
15:00+14sse46555 0.0 10321094
18:00+12se3867100 0.0 1030310
21:00+8se41282100 0.0 1029453
13 april, tue
tue1300:00+8sse41181100 0.0 1028583
03:00+6sse3989100 0.0 1027302
06:00+5sse3997100 0.0 1025253
09:00+9sse3786100 0.0 1024311
12:00+13s3669100 0.0 1022627
15:00+16s4758100 0.0 10211052
18:00+14ssw3772100 0.0 1020272
21:00+11sw41286100 0.4 1021660
14 april, wed
wed1400:00+11ssw4992100 2.1 1020514
03:00+10s2496100 2.7 101998
06:00+10ssw41293100 0.2 1018527
09:00+10s2794100 1.0 1018366
12:00+11wsw3786100 0.1 1018566
15:00+8n3693100 0.4 1020347
18:00+8nnw1493100 0.4 1020213
21:00+6n3877100 1.3 1021382
15 april, thu
thu1500:00+3nne398191 0.0 1022346
03:00+2n3885100 0.0 1022289
06:00+2n2787100 0.0 1022353
09:00+4n357599 0.0 1022622
12:00+6n3459100 0.0 10211093
15:00+7nnw4551100 0.0 10211409
18:00+6nnw47545 0.0 10211208
21:00+2nw310690 0.0 1021259